,,Stat1,,Stat2,,Stat3,,Stat4,,Wind1,,Wind1,
time,status,PR1M_SUM,status,RH1M_AVG,status,SR1M_AVG,status,TA1M_AVG,status,W1dAve1m,status,W1sAve1m,
2000-03-01, 00:01:00,VALID,0,VALID,82.6327,VALID,-0.0849042,VALID,17.3603,VALID,182,VALID,1.21382,
2000-03-01, 00:02:00,VALID,0,VALID,82.9849,VALID,-0.0509425,VALID,17.3988,VALID,179,VALID,1.1835,
2000-03-01, 00:03:00,VALID,0,VALID,82.7904,VALID,-0.0849042,VALID,17.4053,VALID,174,VALID,1.11534,
2000-03-01, 00:04:00,VALID,0,VALID,83.2265,VALID,-0.0679233,VALID,17.3668,VALID,174,VALID,0.968973,
2000-03-01, 00:05:00,VALID,0,VALID,84.0276,VALID,-0.0849042,VALID,17.2923,VALID,165,VALID,1.03926,
2000-03-01, 00:06:00,VALID,0,VALID,82.3135,VALID,-0.0679233,VALID,17.1373,VALID,162,VALID,1.11592,
2000-03-01, 00:07:00,VALID,0,VALID,79.5312,VALID,-0.0679233,VALID,17.15,VALID,176,VALID,1.02322,
2000-03-01, 00:08:00,VALID,0,VALID,82.0376,VALID,-0.0679233,VALID,17.2727,VALID,174,VALID,0.913477,
2000-03-01, 00:09:00,VALID,0,VALID,78.8484,VALID,-0.0509425,VALID,17.2667,VALID,187,VALID,1.33906,
2000-03-01, 00:10:00,VALID,0,VALID,79.4715,VALID,-0.0509425,VALID,17.3379,VALID,181,VALID,1.11263,
2000-03-01, 00:11:00,VALID,0,VALID,78.706,VALID,-0.0849042,VALID,17.3472,VALID,181,VALID,1.08736,
2000-03-01, 00:12:00,VALID,0,VALID,79.3252,VALID,-0.0679233,VALID,17.3765,VALID,186,VALID,1.03606,
2000-03-01, 00:13:00,VALID,0,VALID,80.9427,VALID,-0.0339617,VALID,17.3371,VALID,176,VALID,0.775276,
2000-03-01, 00:14:01,VALID,0,VALID,83.5953,VALID,-0.0849042,VALID,17.1793,VALID,167,VALID,0.661106,
2000-03-01, 00:15:00,VALID,0,VALID,85.7138,VALID,-0.0679233,VALID,16.8858,VALID,148,VALID,0.60293,
2000-03-01, 00:16:00,VALID,0,VALID,87.3961,VALID,-0.0509425,VALID,16.5858,VALID,141,VALID,0.52524,
2000-03-01, 00:17:00,VALID,0,VALID,88.4185,VALID,-0.0509425,VALID,16.3373,VALID,140,VALID,0.374023,
2000-03-01, 00:18:00,VALID,0,VALID,88.8941,VALID,-0.0849042,VALID,16.137,VALID,130,VALID,0.511364,
2000-03-01, 00:19:00,VALID,0,VALID,89.8172,VALID,-0.0679233,VALID,15.9016,VALID,127,VALID,0.545673,
2000-03-01, 00:20:00,VALID,0,VALID,91.0316,VALID,-0.0679233,VALID,15.7179,VALID,132,VALID,0.558594,
2000-03-01, 00:21:00,VALID,0,VALID,90.1606,VALID,-0.0849042,VALID,15.6277,VALID,145,VALID,0.783654,
2000-03-01, 00:22:00,VALID,0,VALID,89.4065,VALID,-0.101885,VALID,15.6562,VALID,142,VALID,0.956445,
2000-03-01, 00:23:00,VALID,0,VALID,89.76,VALID,-0.101885,VALID,15.7407,VALID,136,VALID,0.698902,
2000-03-01, 00:24:01,VALID,0,VALID,90.1415,VALID,-0.101885,VALID,15.7306,VALID,141,VALID,0.620566,
2000-03-01, 00:25:00,VALID,0,VALID,89.0746,VALID,-0.0849042,VALID,15.6824,VALID,143,VALID,0.769531,
2000-03-01, 00:26:00,VALID,0,VALID,88.9386,VALID,-0.0849042,VALID,15.6433,VALID,144,VALID,0.818945,
2000-03-01, 00:27:00,VALID,0,VALID,90.2801,VALID,-0.0849042,VALID,15.6469,VALID,150,VALID,0.724175,
2000-03-01, 00:28:00,VALID,0,VALID,90.2305,VALID,-0.0849042,VALID,15.5985,VALID,151,VALID,0.695313,
2000-03-01, 00:29:00,VALID,0,VALID,83.7593,VALID,-0.0679233,VALID,15.6053,VALID,161,VALID,0.98117,
2000-03-01, 00:30:00,VALID,0,VALID,85.5841,VALID,-0.0849042,VALID,15.8534,VALID,168,VALID,0.966216,
2000-03-01, 00:31:00,VALID,0,VALID,85.1772,VALID,-0.0849042,VALID,15.9601,VALID,174,VALID,0.94391,
2000-03-01, 00:32:00,VALID,0,VALID,80.6274,VALID,-0.0849042,VALID,16.0404,VALID,180,VALID,1.1352,
2000-03-01, 00:33:00,VALID,0,VALID,81.1487,VALID,-0.0679233,VALID,16.2925,VALID,182,VALID,1.19215,
2000-03-01, 00:34:00,VALID,0,VALID,80.7965,VALID,-0.101885,VALID,16.493,VALID,189,VALID,1.2278,
2000-03-01, 00:35:00,VALID,0,VALID,81.0877,VALID,-0.0169808,VALID,16.6183,VALID,188,VALID,1.1437,
2000-03-01, 00:36:00,VALID,0,VALID,81.4425,VALID,-0.0339617,VALID,16.6407,VALID,190,VALID,1.13151,
2000-03-01, 00:37:00,VALID,0,VALID,82.5475,VALID,0,VALID,16.6017,VALID,188,VALID,0.928223,
2000-03-01, 00:38:00,VALID,0,VALID,81.9308,VALID,-0.0509425,VALID,16.5378,VALID,186,VALID,0.930147,
2000-03-01, 00:39:00,VALID,0,VALID,81.8697,VALID,-0.0509425,VALID,16.4735,VALID,177,VALID,0.923242,
2000-03-01, 00:40:00,VALID,0,VALID,81.4119,VALID,-0.0509425,VALID,16.4672,VALID,178,VALID,0.987965,
2000-03-01, 00:41:00,VALID,0,VALID,80.3311,VALID,-0.0339617,VALID,16.4825,VALID,179,VALID,1.08535,
2000-03-01, 00:42:00,VALID,0,VALID,81.0788,VALID,-0.0339617,VALID,16.5445,VALID,172,VALID,0.973145,
2000-03-01, 00:43:00,VALID,0,VALID,80.1734,VALID,-0.0169808,VALID,16.538,VALID,177,VALID,0.993627,
2000-03-01, 00:44:00,VALID,0,VALID,79.7563,VALID,-0.0509425,VALID,16.5445,VALID,181,VALID,1.23145,
2000-03-01, 00:45:00,VALID,0,VALID,78.5686,VALID,-0.0679233,VALID,16.5931,VALID,179,VALID,1.17821,
2000-03-01, 00:46:00,VALID,0,VALID,79.633,VALID,-0.0849042,VALID,16.6542,VALID,173,VALID,0.969383,
2000-03-01, 00:47:00,VALID,0,VALID,79.8987,VALID,-0.0509425,VALID,16.5864,VALID,176,VALID,0.994792,
2000-03-01, 00:48:00,VALID,0,VALID,78.6564,VALID,-0.0169808,VALID,16.5019,VALID,174,VALID,1.13047,
2000-03-01, 00:49:00,VALID,0,VALID,79.9547,VALID,-0.0169808,VALID,16.5576,VALID,165,VALID,0.935389,
2000-03-01, 00:50:00,VALID,0,VALID,84.2985,VALID,-0.0849042,VALID,16.5029,VALID,153,VALID,0.621299,
2000-03-01, 00:51:00,VALID,0,VALID,85.5307,VALID,-0.101885,VALID,16.2641,VALID,147,VALID,0.506168,
2000-03-01, 00:52:00,VALID,0,VALID,85.7824,VALID,-0.0679233,VALID,16.0063,VALID,147,VALID,0.535045,
2000-03-01, 00:53:00,VALID,0,VALID,84.4765,VALID,-0.0339617,VALID,15.7955,VALID,153,VALID,0.770433,
2000-03-01, 00:54:00,VALID,0,VALID,82.5373,VALID,-0.0169808,VALID,15.7667,VALID,162,VALID,0.906461,
2000-03-01, 00:55:00,VALID,0,VALID,82.3072,VALID,-0.0679233,VALID,15.8475,VALID,174,VALID,1.07639,
2000-03-01, 00:56:00,VALID,0,VALID,79.0811,VALID,-0.0509425,VALID,15.9829,VALID,169,VALID,1.09609,
2000-03-01, 00:57:01,VALID,0,VALID,78.0193,VALID,-0.0679233,VALID,16.1965,VALID,183,VALID,0.99933,
2000-03-01, 00:58:00,VALID,0,VALID,78.547,VALID,-0.0679233,VALID,16.3575,VALID,191,VALID,1.21723,
2000-03-01, 00:59:00,VALID,0,VALID,74.9992,VALID,-0.0849042,VALID,16.4932,VALID,187,VALID,1.48319,
2000-03-01, 01:00:00,VALID,0,VALID,73.467,VALID,-0.0679233,VALID,16.7319,VALID,188,VALID,1.57652,
2000-03-01, 01:01:00,VALID,0,VALID,72.292,VALID,-0.0849042,VALID,17.0455,VALID,186,VALID,1.53998,
2000-03-01, 01:02:00,VALID,0,VALID,71.1717,VALID,-0.0849042,VALID,17.2936,VALID,181,VALID,1.41765,
2000-03-01, 01:03:00,VALID,0,VALID,70.7813,VALID,-0.0169808,VALID,17.471,VALID,183,VALID,1.35898,
2000-03-01, 01:04:00,VALID,0,VALID,70.0832,VALID,0.0169808,VALID,17.5641,VALID,183,VALID,1.48538,
2000-03-01, 01:05:00,VALID,0,VALID,70.4278,VALID,0.0339617,VALID,17.5997,VALID,171,VALID,1.19102,
2000-03-01, 01:06:00,VALID,0,VALID,69.9815,VALID,0.0339617,VALID,17.5893,VALID,177,VALID,1.1688,
2000-03-01, 01:07:00,VALID,0,VALID,71.4769,VALID,0.0509425,VALID,17.5603,VALID,173,VALID,1.0637,
2000-03-01, 01:08:00,VALID,0,VALID,69.4868,VALID,0.0849042,VALID,17.4959,VALID,182,VALID,1.31558,
2000-03-01, 01:09:00,VALID,0,VALID,68.3335,VALID,0.0849042,VALID,17.5669,VALID,185,VALID,1.42608,
2000-03-01, 01:10:00,VALID,0,VALID,67.5044,VALID,0.0169808,VALID,17.6832,VALID,192,VALID,1.71543,
2000-03-01, 01:11:00,VALID,0,VALID,65.0197,VALID,0.0679233,VALID,17.8315,VALID,193,VALID,1.98247,
2000-03-01, 01:12:00,VALID,0,VALID,64.9866,VALID,0.0509425,VALID,18.0312,VALID,186,VALID,1.75655,
2000-03-01, 01:13:00,VALID,0,VALID,64.0304,VALID,0.0679233,VALID,18.1248,VALID,192,VALID,1.74815,
2000-03-01, 01:14:00,VALID,0,VALID,63.7544,VALID,0.0339617,VALID,18.1767,VALID,190,VALID,1.72305,
2000-03-01, 01:15:00,VALID,0,VALID,65.2053,VALID,0.0509425,VALID,18.1283,VALID,189,VALID,1.52214,
2000-03-01, 01:16:00,VALID,0,VALID,65.6911,VALID,0.0849042,VALID,18.0307,VALID,190,VALID,1.60386,
2000-03-01, 01:17:00,VALID,0,VALID,65.6936,VALID,0.0509425,VALID,17.9927,VALID,192,VALID,1.624,
2000-03-01, 01:18:00,VALID,0,VALID,65.3617,VALID,0.0679233,VALID,17.9343,VALID,193,VALID,1.65709,
2000-03-01, 01:19:00,VALID,0,VALID,63.8269,VALID,-0.0509425,VALID,17.9809,VALID,197,VALID,1.67528,
2000-03-01, 01:20:01,VALID,0,VALID,64.2758,VALID,-0.0339617,VALID,18.0974,VALID,195,VALID,1.4388,
2000-03-01, 01:21:00,VALID,0,VALID,63.8078,VALID,-0.0679233,VALID,18.1456,VALID,198,VALID,1.65203,
2000-03-01, 01:22:00,VALID,0,VALID,63.4683,VALID,-0.101885,VALID,18.2136,VALID,202,VALID,1.46423,
2000-03-01, 01:23:00,VALID,0,VALID,62.727,VALID,-0.0849042,VALID,18.2688,VALID,197,VALID,1.65578,
2000-03-01, 01:24:00,VALID,0,VALID,62.7066,VALID,-0.101885,VALID,18.3262,VALID,191,VALID,1.76324,
2000-03-01, 01:25:00,VALID,0,VALID,64.1016,VALID,-0.0339617,VALID,18.3357,VALID,194,VALID,1.51172,
2000-03-01, 01:26:00,VALID,0,VALID,64.8378,VALID,-0.0509425,VALID,18.2291,VALID,194,VALID,1.42624,
2000-03-01, 01:27:00,VALID,0,VALID,63.1568,VALID,-0.0679233,VALID,18.084,VALID,196,VALID,1.65957,
2000-03-01, 01:28:00,VALID,0,VALID,64.1474,VALID,-0.0509425,VALID,18.0418,VALID,194,VALID,1.50739,
2000-03-01, 01:29:00,VALID,0,VALID,63.0474,VALID,-0.0169808,VALID,18.0095,VALID,191,VALID,1.4873,
2000-03-01, 01:30:00,VALID,0,VALID,62.3531,VALID,-0.0339617,VALID,18.0418,VALID,186,VALID,1.54761,
2000-03-01, 01:31:01,VALID,0,VALID,62.9622,VALID,-0.0509425,VALID,18.1223,VALID,177,VALID,1.39371,
2000-03-01, 01:32:00,VALID,0,VALID,65.3999,VALID,-0.0339617,VALID,18.0995,VALID,171,VALID,1.19668,
2000-03-01, 01:33:00,VALID,0,VALID,66.6791,VALID,-0.0339617,VALID,17.9156,VALID,169,VALID,1.07665,
2000-03-01, 01:34:00,VALID,0,VALID,66.8483,VALID,-0.0679233,VALID,17.6866,VALID,174,VALID,1.09861,
2000-03-01, 01:35:00,VALID,0,VALID,67.6773,VALID,-0.0509425,VALID,17.4931,VALID,174,VALID,1.07878,
2000-03-01, 01:36:00,VALID,0,VALID,65.4597,VALID,-0.0509425,VALID,17.3767,VALID,180,VALID,1.23457,
2000-03-01, 01:37:00,VALID,0,VALID,66.1489,VALID,-0.0339617,VALID,17.4279,VALID,175,VALID,1.06208,
2000-03-01, 01:38:00,VALID,0,VALID,65.9378,VALID,-0.0339617,VALID,17.4348,VALID,174,VALID,1.09868,
2000-03-01, 01:39:00,VALID,0,VALID,65.6924,VALID,-0.0339617,VALID,17.435,VALID,173,VALID,1.25863,
2000-03-01, 01:40:00,VALID,0,VALID,66.3078,VALID,-0.0509425,VALID,17.4802,VALID,174,VALID,1.25513,
2000-03-01, 01:41:00,VALID,0,VALID,65.6415,VALID,-0.0339617,VALID,17.483,VALID,175,VALID,1.19531,
2000-03-01, 01:42:01,VALID,0,VALID,65.1875,VALID,-0.0679233,VALID,17.4867,VALID,175,VALID,1.30764,
2000-03-01, 01:43:00,VALID,0,VALID,65.3745,VALID,-0.0679233,VALID,17.5353,VALID,167,VALID,1.51975,
2000-03-01, 01:44:00,VALID,0,VALID,65.3185,VALID,-0.0679233,VALID,17.5413,VALID,168,VALID,1.58125,
2000-03-01, 01:45:00,VALID,0,VALID,65.0032,VALID,-0.101885,VALID,17.5637,VALID,173,VALID,1.38683,
2000-03-01, 01:46:00,VALID,0,VALID,65.1316,VALID,-0.0849042,VALID,17.6029,VALID,177,VALID,1.25109,
2000-03-01, 01:47:00,VALID,0,VALID,65.3414,VALID,-0.0679233,VALID,17.596,VALID,176,VALID,1.23248,
2000-03-01, 01:48:00,VALID,0,VALID,65.0451,VALID,-0.0679233,VALID,17.5964,VALID,171,VALID,1.48438,
2000-03-01, 01:49:00,VALID,0,VALID,64.2618,VALID,-0.0679233,VALID,17.6546,VALID,174,VALID,1.45979,
2000-03-01, 01:50:00,VALID,0,VALID,63.3869,VALID,-0.0169808,VALID,17.777,VALID,179,VALID,1.5568,
2000-03-01, 01:51:00,VALID,0,VALID,63.1237,VALID,-0.0849042,VALID,17.9129,VALID,178,VALID,1.32793,
2000-03-01, 01:52:01,VALID,0,VALID,63.0805,VALID,-0.0509425,VALID,17.9996,VALID,178,VALID,1.34876,
2000-03-01, 01:53:01,VALID,0,VALID,62.9673,VALID,-0.101885,VALID,18.0616,VALID,182,VALID,1.40781,
2000-03-01, 01:54:00,VALID,0,VALID,62.6609,VALID,-0.0849042,VALID,18.0547,VALID,180,VALID,1.25781,
2000-03-01, 01:55:00,VALID,0,VALID,61.9551,VALID,-0.0679233,VALID,18.0743,VALID,180,VALID,1.25641,
2000-03-01, 01:56:00,VALID,0,VALID,61.6347,VALID,-0.0679233,VALID,18.1486,VALID,181,VALID,1.25761,
2000-03-01, 01:57:00,VALID,0,VALID,60.8743,VALID,-0.0679233,VALID,18.2136,VALID,188,VALID,1.56791,
2000-03-01, 01:58:00,VALID,0,VALID,60.4559,VALID,-0.0849042,VALID,18.284,VALID,183,VALID,1.47266,
2000-03-01, 01:59:00,VALID,0,VALID,59.52,VALID,-0.101885,VALID,18.3423,VALID,181,VALID,1.46769,
2000-03-01, 02:00:00,VALID,0,VALID,60.2168,VALID,-0.0509425,VALID,18.3871,VALID,178,VALID,1.20925,
2000-03-01, 02:01:00,VALID,0,VALID,62.1751,VALID,-0.0509425,VALID,18.3292,VALID,183,VALID,1.10197,
2000-03-01, 02:02:00,VALID,0,VALID,63.537,VALID,-0.0849042,VALID,18.1128,VALID,192,VALID,1.24199,
2000-03-01, 02:03:00,VALID,0,VALID,62.8948,VALID,-0.0509425,VALID,17.893,VALID,188,VALID,1.39648,
2000-03-01, 02:04:01,VALID,0,VALID,61.7682,VALID,0.0169808,VALID,17.7888,VALID,180,VALID,1.55009,
2000-03-01, 02:05:00,VALID,0,VALID,62.3798,VALID,0.0169808,VALID,17.8495,VALID,172,VALID,1.30008,
2000-03-01, 02:06:00,VALID,0,VALID,62.8465,VALID,0,VALID,17.8728,VALID,187,VALID,1.36191,
2000-03-01, 02:07:00,VALID,0,VALID,64.6128,VALID,0.0169808,VALID,17.7821,VALID,189,VALID,1.38782,
2000-03-01, 02:08:00,VALID,0,VALID,64.3267,VALID,0,VALID,17.6438,VALID,189,VALID,1.43251,
2000-03-01, 02:09:00,VALID,0,VALID,63.9732,VALID,0,VALID,17.6046,VALID,177,VALID,1.49768,
2000-03-01, 02:10:00,VALID,0,VALID,65.0858,VALID,0,VALID,17.6043,VALID,162,VALID,1.35711,
2000-03-01, 02:11:00,VALID,0,VALID,67.8643,VALID,0,VALID,17.4367,VALID,157,VALID,1.37429,
2000-03-01, 02:12:00,VALID,0,VALID,66.95,VALID,0,VALID,17.2112,VALID,165,VALID,1.36654,
2000-03-01, 02:13:00,VALID,0,VALID,67.2374,VALID,0.0339617,VALID,17.1494,VALID,165,VALID,1.27393,
2000-03-01, 02:14:01,VALID,0,VALID,66.0128,VALID,0.0169808,VALID,17.1658,VALID,172,VALID,1.64407,
2000-03-01, 02:15:01,VALID,0,VALID,64.2516,VALID,0.0169808,VALID,17.3592,VALID,163,VALID,1.49395,
2000-03-01, 02:16:00,VALID,0,VALID,63.4467,VALID,0,VALID,17.5921,VALID,172,VALID,1.44573,
2000-03-01, 02:17:00,VALID,0,VALID,62.0581,VALID,0,VALID,17.7434,VALID,167,VALID,1.28496,
2000-03-01, 02:18:00,VALID,0,VALID,61.2901,VALID,0,VALID,17.9111,VALID,170,VALID,1.25269,
2000-03-01, 02:19:00,VALID,0,VALID,62.0924,VALID,-0.0509425,VALID,18.0349,VALID,176,VALID,1.07854,
2000-03-01, 02:20:00,VALID,0,VALID,63.0055,VALID,-0.101885,VALID,18.0061,VALID,186,VALID,0.848828,
2000-03-01, 02:21:00,VALID,0,VALID,62.7677,VALID,-0.0849042,VALID,17.887,VALID,199,VALID,0.814823,
2000-03-01, 02:22:00,VALID,0,VALID,64.0723,VALID,-0.0849042,VALID,17.777,VALID,200,VALID,0.836571,
2000-03-01, 02:23:00,VALID,0,VALID,68.4276,VALID,-0.0849042,VALID,17.638,VALID,220,VALID,0.754557,
2000-03-01, 02:24:01,VALID,0,VALID,69.5708,VALID,-0.0339617,VALID,17.3474,VALID,209,VALID,1.02285,
2000-03-01, 02:25:00,VALID,0,VALID,69.188,VALID,-0.0509425,VALID,17.0407,VALID,207,VALID,0.938767,
2000-03-01, 02:26:01,VALID,0,VALID,68.5713,VALID,-0.0849042,VALID,16.867,VALID,198,VALID,1.14823,
2000-03-01, 02:27:00,VALID,0,VALID,71.309,VALID,-0.0849042,VALID,16.812,VALID,196,VALID,0.960321,
2000-03-01, 02:28:00,VALID,0,VALID,73.2889,VALID,-0.101885,VALID,16.6439,VALID,204,VALID,0.820536,
2000-03-01, 02:29:00,VALID,0,VALID,72.1903,VALID,-0.0849042,VALID,16.4343,VALID,207,VALID,0.908053,
2000-03-01, 02:30:00,VALID,0,VALID,72.3874,VALID,-0.101885,VALID,16.2923,VALID,189,VALID,1.06862,
2000-03-01, 02:31:00,VALID,0,VALID,69.057,VALID,-0.0849042,VALID,16.2179,VALID,189,VALID,1.36003,
2000-03-01, 02:32:00,VALID,0,VALID,70.6071,VALID,-0.101885,VALID,16.3704,VALID,200,VALID,1.24902,
2000-03-01, 02:33:00,VALID,0,VALID,68.6171,VALID,-0.0849042,VALID,16.4216,VALID,201,VALID,1.26563,
2000-03-01, 02:34:00,VALID,0,VALID,69.0875,VALID,-0.0509425,VALID,16.4862,VALID,197,VALID,1.41298,
2000-03-01, 02:35:00,VALID,0,VALID,69.0825,VALID,0,VALID,16.5467,VALID,196,VALID,1.53598,
2000-03-01, 02:36:00,VALID,0,VALID,69.2147,VALID,0.0509425,VALID,16.5981,VALID,195,VALID,1.42949,
2000-03-01, 02:37:01,VALID,0,VALID,69.6292,VALID,0.0169808,VALID,16.5721,VALID,192,VALID,1.3403,
2000-03-01, 02:38:00,VALID,0,VALID,70.6173,VALID,0,VALID,16.5077,VALID,194,VALID,1.39527,
2000-03-01, 02:39:00,VALID,0,VALID,69.9484,VALID,0,VALID,16.4401,VALID,194,VALID,1.79492,
2000-03-01, 02:40:00,VALID,0,VALID,70.2714,VALID,0.0169808,VALID,16.5174,VALID,196,VALID,1.86278,
2000-03-01, 02:41:00,VALID,0,VALID,70.0769,VALID,0,VALID,16.6426,VALID,190,VALID,1.94004,
2000-03-01, 02:42:00,VALID,0,VALID,69.6725,VALID,0.0169808,VALID,16.7795,VALID,186,VALID,1.86293,
2000-03-01, 02:43:00,VALID,0,VALID,69.558,VALID,0,VALID,16.8376,VALID,182,VALID,1.66587,
2000-03-01, 02:44:00,VALID,0,VALID,69.1308,VALID,0.0169808,VALID,16.9181,VALID,180,VALID,1.63425,
2000-03-01, 02:45:00,VALID,0,VALID,68.7671,VALID,0,VALID,17.0437,VALID,178,VALID,1.498,
2000-03-01, 02:46:00,VALID,0,VALID,68.8345,VALID,0.0339617,VALID,17.1016,VALID,184,VALID,1.54062,
2000-03-01, 02:47:00,VALID,0,VALID,68.8777,VALID,0.0339617,VALID,17.1115,VALID,184,VALID,1.26119,
2000-03-01, 02:48:00,VALID,0,VALID,68.5255,VALID,0,VALID,17.1018,VALID,179,VALID,1.22276,
2000-03-01, 02:49:00,VALID,0,VALID,68.1542,VALID,0.0169808,VALID,17.1117,VALID,184,VALID,1.41098,
2000-03-01, 02:50:00,VALID,0,VALID,67.1674,VALID,0,VALID,17.1795,VALID,181,VALID,1.62754,
2000-03-01, 02:51:00,VALID,0,VALID,67.4001,VALID,0.0169808,VALID,17.3087,VALID,171,VALID,1.57878,
2000-03-01, 02:52:00,VALID,0,VALID,67.4675,VALID,0.0169808,VALID,17.3442,VALID,171,VALID,1.65832,
2000-03-01, 02:53:00,VALID,0,VALID,67.5171,VALID,0.0339617,VALID,17.3147,VALID,178,VALID,1.44732,
2000-03-01, 02:54:00,VALID,0,VALID,67.189,VALID,0.0339617,VALID,17.2983,VALID,182,VALID,1.50338,
2000-03-01, 02:55:00,VALID,0,VALID,67.4841,VALID,0.0169808,VALID,17.3173,VALID,183,VALID,1.23738,
2000-03-01, 02:56:00,VALID,0,VALID,69.347,VALID,0.0679233,VALID,17.2727,VALID,191,VALID,1.14974,
2000-03-01, 02:57:01,VALID,0,VALID,68.893,VALID,0.0169808,VALID,17.1016,VALID,199,VALID,1.40329,
2000-03-01, 02:58:00,VALID,0,VALID,66.2798,VALID,0.0169808,VALID,17.0082,VALID,194,VALID,1.63898,
2000-03-01, 02:59:00,VALID,0,VALID,66.7376,VALID,0.0339617,VALID,17.0855,VALID,202,VALID,1.37311,
2000-03-01, 03:00:00,VALID,0,VALID,65.5372,VALID,0.0679233,VALID,17.1793,VALID,201,VALID,1.33095,
2000-03-01, 03:01:00,VALID,0,VALID,64.319,VALID,0.0509425,VALID,17.2628,VALID,193,VALID,1.47925,
2000-03-01, 03:02:00,VALID,0,VALID,63.4238,VALID,0.0679233,VALID,17.4012,VALID,191,VALID,1.81664,
2000-03-01, 03:03:00,VALID,0,VALID,61.4655,VALID,0.0679233,VALID,17.6212,VALID,190,VALID,2.07363,
2000-03-01, 03:04:00,VALID,0,VALID,61.1273,VALID,0.0169808,VALID,17.9085,VALID,188,VALID,1.86634,
2000-03-01, 03:05:00,VALID,0,VALID,60.1825,VALID,0,VALID,18.0736,VALID,181,VALID,1.70488,
2000-03-01, 03:06:00,VALID,0,VALID,59.9218,VALID,0.0509425,VALID,18.1963,VALID,181,VALID,1.75562,
2000-03-01, 03:07:00,VALID,0,VALID,59.2746,VALID,0.0169808,VALID,18.3255,VALID,185,VALID,1.647,
2000-03-01, 03:08:00,VALID,0,VALID,59.5581,VALID,0.0509425,VALID,18.4157,VALID,182,VALID,1.78691,
2000-03-01, 03:09:00,VALID,0,VALID,58.8359,VALID,0.0509425,VALID,18.4701,VALID,183,VALID,1.84438,
2000-03-01, 03:10:00,VALID,0,VALID,59.3547,VALID,0.0339617,VALID,18.5121,VALID,181,VALID,1.77513,
2000-03-01, 03:11:00,VALID,0,VALID,59.3038,VALID,0.0509425,VALID,18.5052,VALID,181,VALID,1.68555,
2000-03-01, 03:12:00,VALID,0,VALID,59.0737,VALID,0.0339617,VALID,18.5024,VALID,182,VALID,1.73516,
2000-03-01, 03:13:00,VALID,0,VALID,59.3827,VALID,0.0509425,VALID,18.4987,VALID,185,VALID,1.54244,
2000-03-01, 03:14:00,VALID,0,VALID,60.3402,VALID,0.0509425,VALID,18.4667,VALID,181,VALID,1.45888,
2000-03-01, 03:15:00,VALID,0,VALID,60.6822,VALID,0.0509425,VALID,18.3795,VALID,185,VALID,1.58799,
2000-03-01, 03:16:00,VALID,0,VALID,61.1833,VALID,0.0849042,VALID,18.3082,VALID,184,VALID,1.53571,
2000-03-01, 03:17:00,VALID,0,VALID,61.7199,VALID,0.0169808,VALID,18.2565,VALID,182,VALID,1.46575,
2000-03-01, 03:18:00,VALID,0,VALID,61.758,VALID,0.0849042,VALID,18.1922,VALID,186,VALID,1.77534,
2000-03-01, 03:19:00,VALID,0,VALID,61.7186,VALID,0.0509425,VALID,18.1666,VALID,184,VALID,1.78103,
2000-03-01, 03:20:01,VALID,0,VALID,62.3379,VALID,0.101885,VALID,18.1726,VALID,186,VALID,1.52813,
2000-03-01, 03:21:00,VALID,0,VALID,62.6138,VALID,0.0849042,VALID,18.1018,VALID,185,VALID,1.51763,
2000-03-01, 03:22:00,VALID,0,VALID,62.6494,VALID,0.0339617,VALID,18.0372,VALID,187,VALID,1.64084,
2000-03-01, 03:23:00,VALID,0,VALID,62.7155,VALID,0.0509425,VALID,17.9982,VALID,188,VALID,1.59257,
2000-03-01, 03:24:00,VALID,0,VALID,62.9393,VALID,0,VALID,17.9888,VALID,187,VALID,1.66967,
2000-03-01, 03:25:00,VALID,0,VALID,62.8071,VALID,0.0509425,VALID,17.9759,VALID,179,VALID,1.49104,
2000-03-01, 03:26:00,VALID,0,VALID,63.186,VALID,0.0679233,VALID,17.95,VALID,173,VALID,1.47762,
2000-03-01, 03:27:00,VALID,0,VALID,64.0723,VALID,0.0509425,VALID,17.8755,VALID,179,VALID,1.20176,
2000-03-01, 03:28:00,VALID,0,VALID,63.6476,VALID,0.0509425,VALID,17.775,VALID,177,VALID,1.29067,
2000-03-01, 03:29:00,VALID,0,VALID,64.4665,VALID,0.0169808,VALID,17.7561,VALID,177,VALID,1.19961,
2000-03-01, 03:30:00,VALID,0,VALID,65.9022,VALID,0.0509425,VALID,17.6592,VALID,172,VALID,1.10156,
2000-03-01, 03:31:01,VALID,0,VALID,67.0072,VALID,0.0679233,VALID,17.4492,VALID,172,VALID,1.1232,
2000-03-01, 03:32:00,VALID,0,VALID,67.8096,VALID,0.0849042,VALID,17.2269,VALID,168,VALID,1.13816,
2000-03-01, 03:33:00,VALID,0,VALID,68.6069,VALID,0.0679233,VALID,17.0523,VALID,170,VALID,1.17548,
2000-03-01, 03:34:00,VALID,0,VALID,68.5013,VALID,0.0679233,VALID,16.9361,VALID,174,VALID,1.1832,
2000-03-01, 03:35:00,VALID,0,VALID,68.523,VALID,-0.0339617,VALID,16.9402,VALID,179,VALID,1.22445,
2000-03-01, 03:36:00,VALID,0,VALID,68.2801,VALID,-0.0509425,VALID,16.9697,VALID,184,VALID,1.27069,
2000-03-01, 03:37:00,VALID,0,VALID,68.6857,VALID,-0.0169808,VALID,16.9988,VALID,189,VALID,1.43771,
2000-03-01, 03:38:00,VALID,0,VALID,68.5776,VALID,-0.0679233,VALID,17.0114,VALID,186,VALID,1.37441,
2000-03-01, 03:39:00,VALID,0,VALID,68.4861,VALID,-0.0339617,VALID,17.0278,VALID,186,VALID,1.40234,
2000-03-01, 03:40:00,VALID,0,VALID,69.0341,VALID,-0.0169808,VALID,17.0276,VALID,193,VALID,1.38879,
2000-03-01, 03:41:00,VALID,0,VALID,68.8739,VALID,-0.0339617,VALID,16.9826,VALID,193,VALID,1.55008,
2000-03-01, 03:42:00,VALID,0,VALID,68.3615,VALID,-0.0339617,VALID,16.9566,VALID,193,VALID,1.45291,
2000-03-01, 03:43:00,VALID,0,VALID,68.481,VALID,-0.0169808,VALID,16.9957,VALID,183,VALID,1.41947,
2000-03-01, 03:44:00,VALID,0,VALID,68.3716,VALID,-0.0509425,VALID,16.9858,VALID,178,VALID,1.10699,
2000-03-01, 03:45:00,VALID,0,VALID,68.9426,VALID,-0.0679233,VALID,16.9854,VALID,172,VALID,1.12437,
2000-03-01, 03:46:00,VALID,0,VALID,69.1155,VALID,-0.0509425,VALID,16.9342,VALID,169,VALID,1.09108,
2000-03-01, 03:47:00,VALID,0,VALID,69.9395,VALID,-0.0339617,VALID,16.8765,VALID,181,VALID,1.08144,
2000-03-01, 03:48:00,VALID,0,VALID,70.2561,VALID,-0.0509425,VALID,16.7564,VALID,180,VALID,0.985894,
2000-03-01, 03:49:00,VALID,0,VALID,71.8825,VALID,-0.0169808,VALID,16.637,VALID,185,VALID,0.929443,
2000-03-01, 03:50:00,VALID,0,VALID,72.1076,VALID,-0.0169808,VALID,16.4597,VALID,184,VALID,0.981158,
2000-03-01, 03:51:00,VALID,0,VALID,71.2022,VALID,-0.0169808,VALID,16.3401,VALID,180,VALID,1.00605,
2000-03-01, 03:52:00,VALID,0,VALID,70.8563,VALID,-0.0339617,VALID,16.3986,VALID,175,VALID,0.836782,
2000-03-01, 03:53:00,VALID,0,VALID,72.437,VALID,-0.0509425,VALID,16.4246,VALID,173,VALID,0.695703,
2000-03-01, 03:54:00,VALID,0,VALID,73.851,VALID,-0.0679233,VALID,16.299,VALID,171,VALID,0.666504,
2000-03-01, 03:55:00,VALID,0,VALID,74.4219,VALID,-0.0679233,VALID,16.1247,VALID,174,VALID,0.573191,
2000-03-01, 03:56:00,VALID,0,VALID,76.2734,VALID,-0.0169808,VALID,15.9857,VALID,171,VALID,0.681055,
2000-03-01, 03:57:00,VALID,0,VALID,74.4346,VALID,-0.0339617,VALID,15.8274,VALID,175,VALID,1.01182,
2000-03-01, 03:58:00,VALID,0,VALID,74.4804,VALID,-0.0679233,VALID,15.8639,VALID,185,VALID,1.06356,
2000-03-01, 03:59:00,VALID,0,VALID,74.7831,VALID,-0.0509425,VALID,15.9052,VALID,195,VALID,0.963542,
2000-03-01, 04:00:00,VALID,0,VALID,73.0842,VALID,-0.0339617,VALID,15.9179,VALID,204,VALID,1.06621,
2000-03-01, 04:01:00,VALID,0,VALID,72.0835,VALID,-0.0339617,VALID,16.0537,VALID,193,VALID,1.29793,